FENGYUN 1C DEB

Satellite information

Favourite Embed

Satellite Type and Status

DEBRISIN ORBIT

Key statistics

Satellite FENGYUN 1C DEB at a glance.

Uptime

9715

Days in orbit

Revolutions

≈ 14.3

Per day

Orbit

SSO

Sun Synchronous Orbit

Inclination

98.5

Latest

Satellite identification and parameters

Extended collection of information and parameters for FENGYUN 1C DEB.

Object identification

Identified? True

Debris? True

Object name: FENGYUN 1C DEB

International designator: 1999-025BNM

Object number (NORAD): 31279

Object ID (CCSDS): 31279

Country: PEOPLES REPUBLIC OF CHINA (PRC)

Current information (Y/N): Y

RCS size: SMALL

Orbital parameters

Period: 100.96 minutes

Inclination: 98.5172 deg

SMA: 7182.229 km

Apoapsis: 857.095 km

Periapsis: 751.092 km

RAAN: 355.5327 deg

Eccentricy: 0.00737949

Argument of periapsis: 176.1147 deg

Mean anomaly: 184.0623 deg

Mean motion: 14.26309993 rev/day

Mean motion (dot): 0.00001757 rev/day2

B* drag term: 0.00072823892 1/REarth

Two-line elements (TLE)

Creation date: Dec. 13, 2025, 5:47 p.m.

Reference frame: TEME

Reference center: EARTH

Epoch: Dec. 13, 2025, 6:14 a.m. UTC

TLE line 0: 0 FENGYUN 1C DEB

TLE line 1: 1 31279U 99025BNM 25347.25977625 .00001757 00000-0 72824-3 0 9997

TLE line 2: 2 31279 98.5172 355.5327 0073795 176.1147 184.0623 14.26309993972361

Live tracking on map

Real-time ground track for satellite FENGYUN 1C DEB.

In-orbit conjunctions

A list of the most updated potential collisions computed for object FENGYUN 1C DEB.

Target Orbit TCA Probability of collision Miss distance Type
SL-16 R/B LEO 2025-10-10 16:11:52 0.0001049248 825.0 (m) ROCKET BODY
FENGYUN 1C DEB SSO 2025-02-23 22:22:42 0.000138116 146.0 (m) DEBRIS
COSMOS 2251 DEB LEO 2024-09-10 11:57:52 0.0001561421 258.0 (m) DEBRIS

Associated space launch

Chinese polar orbiting meteorological satellite

FENGYUN 1C DEB was lifted into orbit during the mission ‘Long March 4B | Feng Yun 1C’, on board a Long March 4B space rocket.

The launch took place on May 10, 1999, 1:33 a.m. from Launch Complex 7.

For more information about the launch, click the button.

Launch to space Long March 4B | Feng Yun 1C
Long March 4B | Feng Yun 1C

Agency: N/A

Status: Launch Successful

Launch date: May 10, 1999, 1:33 a.m. UTC

Rocket: Long March 4B

Launch pad: Launch Complex 7

Location: Taiyuan Satellite Launch Center, People's Republic of China

...

Latest news about this satellite

There are no fresh news available about this satellite. Check back as we update our databases every day.


Newsletter sign-up

Weekly statistics, charts and insights to help you stay on top of the space industry.